Location: *
(46.1333°S, 161.2167°W)
Time: 04:20:09
(UTC+00:00)

Cosmos 2227 - Pass Details

Date: 15 July 2020
Orbit: 833 x 863 km, 71.0° (Epoch: 10 August)

Event Time Altitude Azimuth Distance (km) Brightness Sun altitude
Exits shadow 16:30:30 22° 214° (SW) 1,795 5.5 -18.7°
Maximum altitude 16:34:17 69° 292° (WNW) 907 4.1 -18.0°
Drops below altitude 10° 16:39:53 10° 14° (NNE) 2,462 7.0 -17.1°
Sets 16:42:20 0° 16° (NNE) 3,393 7.8 -16.7°
